Regional Weather Roundup
Issued by NWS

Home | Current Version | Previous Version | Graphics & Text | Print | Product List | Glossary On
Versions: 1 2 3 4 5 6 7 8 9 10 11 12 13 14 15 16 17 18 19 20 21 22 23 24 25 26 27 28 29 30 31 32 33 34 35 36 37 38 39 40 41 42 43 44 45 46 47 48 49 50
000
ASUS45 KCYS 211310
RWRWY

WYOMING REGIONAL WEATHER ROUNDUP
NATIONAL WEATHER SERVICE CHEYENNE WY
700 AM MDT TUE OCT 21 2014

NOTE:  "FAIR" INDICATES FEW OR NO CLOUDS BELOW 12,000 FEET
WITH NO SIGNIFICANT WEATHER AND/OR OBSTRUCTIONS TO VISIBILITY.

WYZ001-211400-
YELLOWSTONE NATIONAL PARK

CITY           SKY/WX    TMP DP  RH WIND       PRES   REMARKS
LK YELLOWSTONE   N/A     29  27  92 CALM      30.01R
W YELLOWSTONE  NOT AVBL

$$
WYZ002>013-054>058-071-098>099-211400-
NORTHERN WYOMING

CITY           SKY/WX    TMP DP  RH WIND       PRES   REMARKS
JACKSON        CLOUDY    37  34  87 VRB7      29.95F WCI  32
CODY           CLEAR    N/A N/A N/A SW9       29.83S
GREYBULL       CLEAR     37  25  61 CALM      29.82S
WORLAND        CLEAR     45  31  58 VRB5      29.82S
SHERIDAN       CLEAR     38  30  73 CALM      29.77F
BUFFALO        CLEAR     58  28  32 W12       29.84F
GILLETTE       CLEAR     58  34  40 SW20G29   29.81F
HULETT         FAIR      63  34  34 S15       29.84
NEWCASTLE      FAIR      45  34  65 CALM      29.91

$$
WYZ014>020-022>026-101>103-211400-
CENTRAL WYOMING

CITY           SKY/WX    TMP DP  RH WIND       PRES   REMARKS
BIG PINEY      CLOUDY    31  27  85 E9        30.03F WCI  23
PINEDALE       CLOUDY    32  32 100 CALM      30.05S
DUBOIS         DRIZZLE   36  28  75 NW12G20   29.98S WCI  27
LANDER         PTCLDY    45  32  60 SW5       29.92S
RIVERTON       CLEAR     41  30  65 S5        29.92F
CASPER         CLEAR     53  35  50 SW17      29.95S
DOUGLAS        PTCLDY    50  37  61 SW10      29.96F

$$
WYZ021-027>030-104>119-211400-
SOUTHERN WYOMING

CITY           SKY/WX    TMP DP  RH WIND       PRES   REMARKS
EVANSTON       MOCLDY    46  36  68 SW14      30.04R
KEMMERER       MOSUNNY   45  34  65 CALM      30.03S
FORT BRIDGER   FAIR      48  37  65 S12       30.05F
ROCK SPRINGS   PTCLDY    50  35  56 S5        30.03S
DIXON          FAIR      43  35  75 CALM      30.11S
RAWLINS        PTCLDY    47  35  63 SW3       30.06F
SARATOGA       FAIR      43  34  70 S5        30.10S
LARAMIE        PTCLDY    39  32  76 S9        30.12S WCI  33
CHEYENNE       CLOUDY    47  35  63 W5        30.05S
TORRINGTON     CLEAR     40  35  83 W3        29.96R
PINE BLUFFS    FAIR      36  32  87 CALM      30.02S

$$



USA.gov is the U.S. government's official web portal to all federal, state and local government web resources and services.